DW1920 Weather Reports


Display with metric or nautical units.
time (UTC)temp
F
wind
direction
speed
MPH
gust
MPH
rain 1hr
in
rain 24hr
in
rain mn
in
humidity
%
barometer
mb
20180721174001 65 208 4.0 5.0 0.00 0.00 0.00 91 1021.9
20180721173001 65 190 4.0 5.0 0.00 0.00 0.00 88 1021.9
20180721172001 64 203 3.0 5.0 0.00 0.00 0.00 90 1022.0
20180721171001 64 180 3.0 5.0 0.00 0.00 0.00 89 1021.9
20180721170000 64 179 3.0 5.0 0.00 0.00 0.00 89 1021.9
20180721165001 65 153 3.0 5.0 0.00 0.00 0.00 89 1022.0
20180721164000 64 152 3.0 4.0 0.00 0.00 0.00 89 1022.1
20180721163001 65 149 3.0 4.0 0.00 0.00 0.00 88 1022.1
20180721162001 65 136 4.0 6.0 0.00 0.00 0.00 88 1022.1
20180721161001 66 141 4.0 6.0 0.00 0.00 0.00 88 1022.1
20180721160001 67 140 4.0 6.0 0.00 0.00 0.00 90 1022.1
20180721155001 67 133 4.0 8.0 0.00 0.00 0.00 91 1022.2
20180721154001 66 111 4.0 6.0 0.00 0.00 0.00 93 1022.2
20180721153001 66 121 3.0 4.0 0.00 0.00 0.00 94 1022.2
20180721152000 65 121 3.0 5.0 0.00 0.00 0.00 94 1022.3
20180721151001 65 113 3.0 4.0 0.00 0.00 0.00 96 1022.3
20180721150001 64 101 3.0 4.0 0.00 0.00 0.00 96 1022.2
20180721145001 63 101 3.0 5.0 0.00 0.00 0.00 96 1022.1
20180721144001 63 96 3.0 4.0 0.00 0.00 0.00 97 1022.0
20180721143001 62 83 3.0 4.0 0.00 0.00 0.00 96 1022.2
20180721142001 62 83 3.0 6.0 0.00 0.00 0.00 96 1022.2
20180721141001 62 77 4.0 7.0 0.00 0.00 0.00 97 1022.1
20180721140001 61 63 5.0 8.0 0.00 0.00 0.00 97 1022.0
20180721135001 61 53 5.0 7.0 0.00 0.00 0.00 97 1022.0
20180721134001 61 47 5.0 7.0 0.00 0.00 0.00 97 1022.0
20180721133000 61 40 5.0 7.0 0.00 0.00 0.00 97 1021.9
20180721132001 61 45 4.0 6.0 0.00 0.00 0.00 97 1021.8
20180721131001 61 41 3.0 7.0 0.00 0.00 0.00 97 1021.9
20180721130001 60 43 5.0 8.0 0.00 0.00 0.00 97 1022.0
20180721125001 60 38 4.0 8.0 0.00 0.00 0.00 97 1022.1
20180721124001 60 38 6.0 7.0 0.00 0.00 0.00 97 1022.0
20180721123000 60 34 4.0 6.0 0.00 0.00 0.00 97 1022.0
20180721122001 59 31 4.0 7.0 0.00 0.00 0.00 97 1022.0
20180721121001 59 33 5.0 9.0 0.00 0.00 0.00 97 1021.9
20180721120002 59 37 6.0 9.0 0.00 0.00 0.00 97 1022.0
20180721115001 58 34 7.0 10.0 0.00 0.00 0.00 97 1022.1
20180721114001 58 36 7.0 9.0 0.00 0.00 0.00 97 1022.0
20180721113000 58 34 7.0 10.0 0.00 0.00 0.00 97 1022.0
20180721112001 58 39 8.0 10.0 0.00 0.00 0.00 97 1022.1
20180721111001 58 35 6.0 10.0 0.00 0.00 0.00 97 1022.2
20180721110001 58 39 7.0 9.0 0.00 0.00 0.00 97 1022.0
20180721105002 58 38 8.0 9.0 0.00 0.00 0.00 97 1022.1
20180721104000 58 43 7.0 9.0 0.00 0.00 0.00 97 1022.1
20180721103006 58 40 6.0 10.0 0.00 0.00 0.00 97 1022.2
20180721102001 58 41 6.0 9.0 0.00 0.00 0.00 97 1022.1
20180721101000 58 37 4.0 9.0 0.00 0.00 0.00 97 1022.1
20180721100001 57 37 6.0 10.0 0.00 0.00 0.00 97 1021.8
20180721095001 57 31 6.0 9.0 0.00 0.00 0.00 97 1021.6
20180721094000 57 32 5.0 9.0 0.00 0.00 0.00 96 1021.5
20180721093001 57 32 6.0 9.0 0.00 0.00 0.00 96 1021.5
20180721092000 57 29 5.0 9.0 0.00 0.00 0.00 97 1021.5
20180721091001 57 32 6.0 9.0 0.00 0.00 0.00 96 1021.6
20180721090001 57 20 6.0 9.0 0.00 0.00 0.00 96 1021.4
20180721085001 57 21 5.0 8.0 0.00 0.00 0.00 96 1021.4
20180721084001 57 23 5.0 7.0 0.00 0.00 0.00 96 1021.5
20180721083001 58 19 4.0 5.0 0.00 0.00 0.00 96 1021.5
20180721082001 58 25 5.0 7.0 0.00 0.00 0.00 96 1021.4
20180721081001 58 27 5.0 7.0 0.00 0.00 0.00 96 1021.4
20180721080001 58 28 5.0 8.0 0.00 0.00 0.00 96 1021.4
20180721075001 58 31 5.0 8.0 0.00 0.00 0.00 96 1021.5
20180721074001 58 34 4.0 7.0 0.00 0.00 0.00 96 1021.5
20180721073001 59 22 5.0 7.0 0.00 0.00 0.00 96 1021.6
20180721072001 59 26 5.0 7.0 0.00 0.00 0.00 95 1021.6
20180721071001 60 30 4.0 5.0 0.00 0.00 0.00 96 1021.6
20180721070001 60 28 4.0 5.0 0.00 0.00 0.00 96 1021.5
20180721065001 60 31 3.0 4.0 0.00 0.00 0.00 95 1021.6
20180721064001 60 29 3.0 4.0 0.00 0.00 0.00 95 1021.6
20180721063001 60 29 3.0 4.0 0.00 0.00 0.00 95 1021.7
20180721062001 60 33 3.0 4.0 0.00 0.00 0.00 95 1021.7
20180721060001 61 32 3.0 4.0 0.00 0.00 0.00 95 1021.6
20180721055001 61 36 3.0 4.0 0.00 0.00 0.00 95 1021.7
20180721054002 60 45 2.0 3.0 0.00 0.00 0.00 95 1021.5
20180721053001 60 29 2.0 4.0 0.00 0.00 0.00 95 1021.6
20180721052001 61 54 2.0 3.0 0.00 0.00 0.00 94 1021.4
20180721051000 61 55 1.0 3.0 0.00 0.00 0.00 94 1021.4
20180721050003 61 75 2.0 3.0 0.00 0.00 0.00 95 1021.5
20180721045001 61 147 1.0 2.0 0.00 0.00 0.00 94 1021.6
20180721044001 61 147 1.0 2.0 0.00 0.00 0.00 94 1021.6
20180721043001 62 195 1.0 2.0 0.00 0.00 0.00 94 1021.5
20180721042001 62 195 2.0 3.0 0.00 0.00 0.00 94 1021.5
20180721041001 62 189 1.0 2.0 0.00 0.00 0.00 94 1021.6
20180721040001 62 185 1.0 2.0 0.00 0.00 0.00 94 1021.5
20180721035001 62 185 1.0 2.0 0.00 0.00 0.00 94 1021.4
20180721033001 63 175 1.0 3.0 0.00 0.00 0.00 94 1021.4
20180721032000 63 178 2.0 3.0 0.00 0.00 0.00 94 1021.5
20180721031001 64 180 1.0 3.0 0.00 0.00 0.00 93 1021.5
20180721030001 64 180 2.0 4.0 0.00 0.00 0.00 94 1021.6
20180721025001 64 195 2.0 3.0 0.00 0.00 0.00 93 1021.7
20180721024001 64 206 2.0 3.0 0.00 0.00 0.00 94 1021.7
20180721023000 64 209 2.0 3.0 0.00 0.00 0.00 94 1021.9
20180721022001 64 210 1.0 2.0 0.00 0.00 0.00 93 1021.8
20180721021001 64 210 1.0 2.0 0.00 0.00 0.00 93 1021.7
20180721020002 64 210 0.0 1.0 0.00 0.00 0.00 92 1021.7
20180721014001 65 210 0.0 3.0 0.00 0.00 0.00 93 1021.7
20180721013001 65 210 1.0 2.0 0.00 0.00 0.00 92 1021.8
20180721012001 66 210 1.0 2.0 0.00 0.00 0.00 92 1021.8
20180721011001 66 210 2.0 3.0 0.00 0.00 0.00 92 1021.8
20180721010002 66 210 2.0 3.0 0.00 0.00 0.00 92 1021.8
20180721005001 67 210 2.0 2.0 0.00 0.00 0.00 92 1021.7
20180721004001 67 210 1.0 2.0 0.00 0.00 0.00 91 1021.4
20180721003001 67 210 1.0 2.0 0.00 0.00 0.00 91 1021.2
20180721002001 67 210 1.0 2.0 0.00 0.00 0.00 91 1021.3
20180721001001 68 210 1.0 2.0 0.00 0.00 0.00 90 1021.2
20180721000001 68 210 1.0 2.0 0.00 0.00 0.00 90 1021.2
20180720235001 68 210 1.0 2.0 0.00 0.00 0.00 90 1021.4
20180720234001 69 210 1.0 3.0 0.00 0.00 0.00 89 1021.3
20180720233001 69 202 1.0 3.0 0.00 0.00 0.00 88 1021.3
20180720232001 70 222 2.0 4.0 0.00 0.00 0.00 88 1021.4
20180720231001 70 222 2.0 3.0 0.00 0.00 0.00 88 1021.5
20180720230001 70 214 2.0 4.0 0.00 0.00 0.00 87 1021.4
20180720225001 70 226 3.0 5.0 0.00 0.00 0.00 87 1021.3
20180720224001 71 231 2.0 7.0 0.00 0.00 0.00 86 1021.4
20180720223001 71 253 4.0 6.0 0.00 0.00 0.00 86 1021.3
20180720222001 71 239 2.0 4.0 0.00 0.00 0.00 85 1021.3
20180720221001 72 233 2.0 3.0 0.00 0.00 0.00 85 1021.3
20180720220001 72 234 2.0 4.0 0.00 0.00 0.00 86 1021.4
20180720215001 71 219 2.0 4.0 0.00 0.00 0.00 86 1021.4
20180720214000 71 191 2.0 4.0 0.00 0.00 0.00 85 1021.5
20180720212001 72 151 1.0 3.0 0.00 0.00 0.00 83 1021.5
20180720211001 73 147 1.0 3.0 0.00 0.00 0.00 84 1021.6
20180720210001 72 147 1.0 3.0 0.00 0.00 0.00 85 1021.7
20180720205001 72 147 1.0 3.0 0.00 0.00 0.00 85 1021.7
20180720204000 72 143 2.0 3.0 0.00 0.00 0.00 85 1021.6
20180720203001 72 157 2.0 4.0 0.00 0.00 0.00 84 1021.7
20180720202001 73 151 3.0 5.0 0.00 0.00 0.00 83 1021.6
20180720201002 73 145 4.0 6.0 0.00 0.00 0.00 82 1021.5
20180720200001 73 152 4.0 5.0 0.00 0.00 0.00 81 1021.5
20180720195001 73 144 3.0 6.0 0.00 0.00 0.00 80 1021.6
20180720194001 73 141 5.0 8.0 0.00 0.00 0.00 79 1021.7
20180720193001 73 142 3.0 5.0 0.00 0.00 0.00 80 1021.7
20180720192001 73 149 3.0 4.0 0.00 0.00 0.00 79 1021.7
20180720191001 72 139 2.0 3.0 0.00 0.00 0.00 81 1021.6
20180720190001 72 147 2.0 4.0 0.00 0.00 0.00 82 1021.6
20180720185001 71 150 2.0 4.0 0.00 0.00 0.00 84 1022.0
20180720184002 71 173 3.0 4.0 0.00 0.00 0.00 84 1022.0
20180720183001 71 176 2.0 4.0 0.00 0.00 0.00 84 1022.0
20180720182001 71 174 3.0 4.0 0.00 0.00 0.00 85 1022.0
20180720181002 71 159 3.0 3.0 0.00 0.00 0.00 84 1022.0
20180720180001 72 145 2.0 3.0 0.00 0.00 0.00 84 1022.0
20180720175001 72 152 2.0 3.0 0.00 0.00 0.00 86 1022.0